Date String (YYYY-MM-DD hh:mm:ss) UTC,Instrument flags,Ambient pressure (hPa),Sample flow (lpm),Bypass flow (lpm),Sample temperature (°C),Ambient temperature (°C),ASC tube jacket temperature (°C),LED temperature (°C),Box temperature (°C),Sample RH (%),Span deviation,Mass concentration (μg/m³),Mass concentration (μg/m³),Mass concentration (μg/m³)
DateTimeUTC,F1_M11,P_M11,Q1_M11,Q2_M11,T1_M11,T2_M11,T3_M11,T4_M11,T5_M11,U1_M11,ZSPAN_M11,X0_M11,X2_M11,X1_M11
2022-04-27 04:00:00,,0823.7,5.00,0.00,29.9,29.0,00.0,38.8,31.6,06.0,0005.0,0033.62,0012.11,0006.62
2022-04-27 04:01:00,,0823.7,4.99,0.00,29.9,29.0,00.0,38.8,31.7,06.1,0005.0,0032.64,0012.11,0006.59
2022-04-27 04:02:00,,0823.7,5.00,0.00,29.9,29.1,00.0,38.8,31.7,06.1,0004.9,0031.57,0012.04,0006.55
2022-04-27 04:03:00,,0823.7,5.03,0.00,29.9,29.1,00.0,38.8,31.7,06.1,0004.1,0031.53,0012.11,0006.53
2022-04-27 04:04:00,,0823.7,4.99,0.00,29.9,29.1,00.0,38.8,31.7,06.1,0003.3,0031.97,0012.05,0006.51
2022-04-27 04:05:00,,0823.7,5.01,0.00,29.9,29.1,00.0,38.8,31.7,06.0,0002.1,0032.16,0012.07,0006.50
2022-04-27 04:06:00,,0823.7,5.00,0.00,29.9,29.1,00.0,38.8,31.7,06.1,0002.4,0033.16,0012.20,0006.47
2022-04-27 04:07:00,,0823.7,4.99,0.00,30.0,29.1,00.0,38.9,31.7,06.1,0003.1,0034.65,0012.35,0006.45
2022-04-27 04:08:00,,0823.6,5.01,0.00,30.0,29.1,00.0,38.9,31.7,06.0,0002.8,0034.75,0012.50,0006.46
2022-04-27 04:09:00,,0823.6,5.01,0.00,30.0,29.1,00.0,38.9,31.7,05.9,0001.6,0033.21,0012.41,0006.48
2022-04-27 04:10:00,,0823.7,4.99,0.00,30.0,28.5,00.0,38.9,31.5,05.9,0001.7,0032.81,0012.36,0006.53
2022-04-27 04:11:00,,0823.7,5.02,0.00,29.8,26.1,00.0,38.8,31.0,05.9,0001.7,0032.75,0012.21,0006.53
2022-04-27 04:12:00,,0823.7,4.98,0.00,29.7,25.5,00.0,38.8,30.9,05.9,0002.8,0033.17,0012.26,0006.57
2022-04-27 04:13:00,,0823.7,5.02,0.00,29.6,25.8,00.0,38.7,31.0,06.0,0002.6,0033.04,0012.25,0006.62
2022-04-27 04:14:00,,0823.7,4.99,0.00,29.5,26.3,00.0,38.7,31.0,06.0,0004.1,0032.55,0012.21,0006.65
2022-04-27 04:15:00,,0823.7,5.01,0.00,29.5,26.7,00.0,38.6,31.0,06.0,0005.1,0031.72,0012.18,0006.67
2022-04-27 04:16:00,,0823.7,5.01,0.00,29.5,27.1,00.0,38.6,31.1,05.9,0005.0,0031.59,0012.19,0006.72
2022-04-27 04:17:00,,0823.7,4.99,0.00,29.5,27.4,00.0,38.5,31.1,06.0,0005.0,0030.91,0012.12,0006.80
2022-04-27 04:18:00,,0823.7,5.01,0.00,29.5,27.6,00.0,38.5,31.1,05.9,0004.8,0028.92,0012.02,0006.87
2022-04-27 04:19:00,,0823.6,4.99,0.00,29.5,27.8,00.0,38.5,31.1,06.0,0004.3,0028.21,0012.03,0006.94
2022-04-27 04:20:00,,0823.6,5.01,0.00,29.5,27.9,00.0,38.5,31.2,06.0,0004.2,0028.37,0011.97,0006.97
2022-04-27 04:21:00,,0823.6,5.01,0.00,29.5,28.1,00.0,38.5,31.2,06.0,0003.9,0028.28,0011.94,0006.99
2022-04-27 04:22:00,,0823.6,4.99,0.00,29.5,28.2,00.0,38.5,31.2,06.0,0003.9,0027.75,0011.85,0006.99
2022-04-27 04:23:00,,0823.6,4.99,0.00,29.5,28.2,00.0,38.5,31.2,06.1,0002.7,0027.08,0011.75,0006.99
2022-04-27 04:24:00,,0823.5,5.02,0.00,29.5,28.3,00.0,38.5,31.2,06.0,0002.3,0026.73,0011.72,0006.99
2022-04-27 04:25:00,,0823.5,4.99,0.00,29.6,28.3,00.0,38.5,31.2,06.0,0001.6,0026.43,0011.64,0006.99
2022-04-27 04:26:00,,0823.4,5.00,0.00,29.6,28.3,00.0,38.5,31.2,06.0,0001.2,0026.68,0011.67,0006.99
2022-04-27 04:27:00,,0823.5,5.00,0.00,29.6,28.3,00.0,38.5,31.2,06.1,0001.4,0026.34,0011.58,0006.96
2022-04-27 04:28:00,,0823.4,5.00,0.00,29.6,28.4,00.0,38.5,31.2,06.1,0000.8,0026.00,0011.56,0006.93
2022-04-27 04:29:00,,0823.5,5.01,0.00,29.6,28.4,00.0,38.5,31.2,06.1,0000.5,0025.82,0011.50,0006.88
2022-04-27 04:30:00,,0823.5,4.99,0.00,29.6,28.4,00.0,38.5,31.3,06.1,0001.1,0025.38,0011.49,0006.83
2022-04-27 04:31:00,,0823.4,5.01,0.00,29.6,28.4,00.0,38.5,31.3,06.0,0001.7,0025.16,0011.45,0006.80
2022-04-27 04:32:00,,0823.4,4.99,0.00,29.6,28.4,00.0,38.5,31.3,06.0,0002.8,0025.15,0011.47,0006.76
2022-04-27 04:33:00,,0823.4,5.00,0.00,29.6,28.5,00.0,38.5,31.3,06.0,0002.6,0025.19,0011.54,0006.73
2022-04-27 04:34:00,,0823.4,5.01,0.00,29.6,28.5,00.0,38.5,31.3,06.0,0003.2,0025.07,0011.55,0006.70
2022-04-27 04:35:00,,0823.4,4.99,0.00,29.6,28.5,00.0,38.5,31.3,06.0,0003.3,0025.29,0011.58,0006.68
2022-04-27 04:36:00,,0823.4,5.01,0.00,29.6,28.5,00.0,38.5,31.3,06.0,0003.0,0026.03,0011.64,0006.65
2022-04-27 04:37:00,,0823.4,5.01,0.00,29.6,28.5,00.0,38.5,31.3,06.1,0002.0,0026.17,0011.72,0006.64
2022-04-27 04:38:00,,0823.4,4.99,0.00,29.6,28.5,00.0,38.5,31.3,06.0,0001.8,0025.99,0011.68,0006.63
2022-04-27 04:39:00,,0823.4,5.01,0.00,29.6,28.5,00.0,38.5,31.3,06.0,0001.9,0026.18,0011.73,0006.62
2022-04-27 04:40:00,,0823.4,4.99,0.00,29.6,28.5,00.0,38.5,31.3,06.0,0001.8,0026.60,0011.80,0006.61
2022-04-27 04:41:00,,0823.5,5.01,0.00,29.6,28.6,00.0,38.5,31.3,06.0,0002.7,0026.58,0011.74,0006.59
2022-04-27 04:42:00,,0823.5,4.99,0.00,29.6,28.6,00.0,38.6,31.3,06.1,0003.0,0026.78,0011.66,0006.58
2022-04-27 04:43:00,,0823.6,5.00,0.00,29.6,28.6,00.0,38.6,31.4,06.2,0002.8,0027.04,0011.72,0006.58
2022-04-27 04:44:00,,0823.6,5.01,0.00,29.6,28.6,00.0,38.6,31.3,06.2,0003.6,0027.30,0011.80,0006.61
2022-04-27 04:45:00,,0823.6,5.00,0.00,29.6,28.6,00.0,38.6,31.4,06.2,0003.9,0027.42,0011.81,0006.61
2022-04-27 04:46:00,,0823.5,4.99,0.00,29.6,28.6,00.0,38.6,31.4,06.2,0004.1,0027.16,0011.75,0006.59
2022-04-27 04:47:00,,0823.5,5.01,0.00,29.6,28.7,00.0,38.6,31.4,06.1,0004.4,0027.09,0011.78,0006.58
2022-04-27 04:48:00,,0823.4,4.98,0.00,29.6,28.7,00.0,38.6,31.4,06.1,0004.5,0026.80,0011.73,0006.56
2022-04-27 04:49:00,,0823.4,5.00,0.00,29.6,28.7,00.0,38.6,31.4,06.1,0004.5,0027.42,0011.79,0006.55
2022-04-27 04:50:00,,0823.4,5.01,0.00,29.6,28.7,00.0,38.6,31.4,06.1,0004.4,0026.99,0011.66,0006.50
2022-04-27 04:51:00,,0823.4,5.00,0.00,29.6,28.7,00.0,38.6,31.4,06.1,0004.4,0026.95,0011.65,0006.50
2022-04-27 04:52:00,,0823.4,5.00,0.00,29.6,28.7,00.0,38.6,31.4,06.1,0004.3,0027.30,0011.76,0006.52
2022-04-27 04:53:00,,0823.3,5.01,0.00,29.6,28.7,00.0,38.6,31.3,06.1,0004.7,0026.73,0011.76,0006.50
2022-04-27 04:54:00,,0823.3,4.98,0.00,29.6,28.8,00.0,38.6,31.3,06.1,0004.6,0026.34,0011.69,0006.49
2022-04-27 04:55:00,,0823.3,5.00,0.00,29.6,28.8,00.0,38.6,31.4,06.1,0003.8,0026.23,0011.64,0006.46
2022-04-27 04:56:00,,0823.4,5.01,0.00,29.6,28.8,00.0,38.6,31.4,06.0,0003.2,0026.41,0011.62,0006.44
2022-04-27 04:57:00,,0823.4,4.99,0.00,29.6,28.8,00.0,38.6,31.4,06.0,0003.6,0026.89,0011.63,0006.43
2022-04-27 04:58:00,,0823.4,5.01,0.00,29.7,28.8,00.0,38.6,31.4,06.0,0003.4,0027.12,0011.60,0006.42
2022-04-27 04:59:00,,0823.5,4.99,0.00,29.7,28.8,00.0,38.6,31.4,06.0,0004.0,0027.99,0011.58,0006.42
